[[{"header":{"parameterUnit":"m.s-1","parameterCategory":1,"la1":30.2992,"la2":30.254,"lo1":-89.0895,"lo2":-89.0443,"dy":0.0025,"dx":0.0025,"nx":19,"ny":19,"refTime":"2026-04-30T21:00:00:Z","depth":0,"parameterNumber":2,"parameterNumberName":"U-component_of_WINDS"},"data":[0,0,0,-4.9231,-4.9235,-4.9403,-4.9404,-4.9639,-4.9641,0,0,0,0,0,0,0,0,0,0,0,-4.9192,-4.9194,-4.923,-4.9235,-4.9403,-4.9404,-4.9638,-4.9641,0,0,0,0,0,0,0,0,0,0,0,-4.9191,-4.9193,-4.9196,-4.9236,-4.9403,-4.9404,-4.9638,-4.9504,0,0,0,0,0,0,0,0,0,0,-4.9337,-4.9312,-4.9193,-4.9196,-4.9237,-4.9403,-4.9404,-4.9497,-4.9512,-4.957,0,-4.9624,0,-4.9636,-4.9658,-4.9659,0,0,0,-4.9227,-4.9299,-4.9334,-4.9196,-4.9238,-4.9403,-4.9325,-4.9505,-4.9523,-4.959,-4.9627,-4.9635,-4.964,-4.9659,-4.9661,-5.0018,-5.002,0,0,-4.9218,-4.9228,-4.9323,-4.9346,-4.932,-4.932,-4.933,-4.9515,-4.9557,-4.9628,-4.964,-4.9644,-4.9661,-4.9663,-5.0016,-5.0019,0,0,0,-4.9196,-4.9222,-4.9252,-4.9337,-4.9366,-4.9325,-4.9337,-4.9548,-4.9557,-4.9643,-4.9647,-4.9662,-4.9666,-5.0014,-5.0017,-5.0129,0,0,0,-4.919,-4.9209,-4.9249,-4.9257,-4.9362,-4.9459,-4.9366,-4.9544,-4.9565,-4.9645,-4.9663,-4.9668,-5.0012,-5.0016,-5.0121,-5.0181,0,0,0,-4.9177,-4.9208,-4.9236,-4.9257,-4.933,-4.9456,-4.9475,-4.9549,-4.9568,-4.9659,-4.9669,-5.001,-5.0015,-5.0114,-5.0169,-5.028,0,0,0,-4.9166,-4.9333,-4.9238,-4.9425,-4.9328,-4.9522,-4.9474,-4.9618,-4.9709,-4.9664,-5.0012,-5.0017,-5.0112,-5.0162,-5.0272,-5.0376,-5.042,0,0,-4.9382,-4.9359,-4.9468,-4.9388,-4.9601,-4.9495,-4.9726,-4.98,-4.9799,-4.9946,-4.9954,-5.0123,-5.0169,-5.0278,-5.0655,-5.069,0,0,0,-4.954,-4.9619,-4.9673,-4.976,-4.9819,-4.9876,-4.9913,-4.994,-5.0064,-4.9876,-5.0191,-5.0218,-5.0282,-5.0331,-5.0361,-5.0416,-5.0039,-5.0039,-5.0038,-4.9863,-4.9852,-5.0033,-5.0042,-5.0126,-5.0162,-5.023,-5.0273,-5.0238,-5.0313,-5.0358,-5.0587,-5.0645,-5.0668,-5.0725,-5.0409,-5.0409,-5.0409,-5.041,-5.0181,-5.0292,-5.0239,-5.0396,-5.0383,-5.0515,-5.0556,-5.0526,-5.0648,-5.0553,-5.0609,-5.0509,-5.0706,-5.0756,-5.0418,-5.0417,-5.0416,-5.0415,-5.0414,-5.0394,-5.0446,-5.0474,-5.0598,-5.0694,-5.0697,-5.0816,-5.08,-5.0785,-5.084,-5.0887,-5.0885,-5.0884,-5.0863,-5.0864,-5.0864,-5.0865,-5.0866,-5.0866,-5.0606,-5.0634,-5.0736,-5.0812,-5.0865,-5.0933,-5.0969,-5.1021,-5.1075,-5.1054,-5.1055,-5.1014,-5.0726,-5.0655,-5.0879,-5.0876,-5.0875,-5.0874,-5.0873,-5.0939,-5.086,-5.1018,-5.1071,-5.1158,-5.1256,-5.1231,-5.1339,-5.138,-5.1439,-5.1385,-5.1173,-5.115,-5.1126,-5.1068,-5.1385,-5.1385,-5.1385,-5.1385,-5.1121,-5.1106,-5.1263,-5.1349,-5.1431,-5.1425,-5.1605,-5.1634,-5.1652,-5.1677,-5.1628,-5.1548,-5.1525,-5.1515,-5.1483,-5.1429,-5.183,-5.1831,-5.1831,-5.1326,-5.1318,-5.1474,-5.1489,-5.1555,-5.1613,-5.1782,-5.1885,-5.1888,-5.1849,-5.1697,-5.1678,-5.1549,-5.1507,-5.1469,-5.1419,-5.132,0,0]},{"header":{"parameterUnit":"m.s-1","parameterCategory":1,"la1":30.2992,"la2":30.254,"lo1":-89.0895,"lo2":-89.0443,"dy":0.0025,"dx":0.0025,"nx":19,"ny":19,"refTime":"2026-04-30T21:00:00:Z","depth":0,"parameterNumber":3,"parameterNumberName":"V-component_of_WINDS"},"data":[0,0,0,-5.4744,-5.4744,-5.4742,-5.4742,-5.4757,-5.4757,0,0,0,0,0,0,0,0,0,0,0,-5.476,-5.476,-5.4744,-5.4744,-5.4742,-5.4742,-5.4756,-5.4757,0,0,0,0,0,0,0,0,0,0,0,-5.4759,-5.476,-5.4761,-5.4744,-5.4742,-5.4742,-5.4756,-5.4751,0,0,0,0,0,0,0,0,0,0,-5.475,-5.4781,-5.476,-5.4761,-5.4744,-5.4742,-5.4742,-5.475,-5.4751,-5.4766,0,-5.4788,0,-5.4773,-5.4759,-5.4759,0,0,0,-5.4732,-5.478,-5.4766,-5.4761,-5.4745,-5.4742,-5.474,-5.4751,-5.4752,-5.4768,-5.4788,-5.4787,-5.4773,-5.476,-5.476,-5.4891,-5.4892,0,0,-5.4733,-5.4767,-5.4765,-5.4767,-5.4773,-5.474,-5.474,-5.4751,-5.4774,-5.4788,-5.4787,-5.4773,-5.476,-5.476,-5.489,-5.4891,0,0,0,-5.4741,-5.4768,-5.4753,-5.4767,-5.4765,-5.474,-5.474,-5.4773,-5.4765,-5.4787,-5.4773,-5.476,-5.4761,-5.4889,-5.4891,-5.4982,0,0,0,-5.474,-5.4773,-5.4753,-5.4775,-5.4766,-5.477,-5.4762,-5.4765,-5.4765,-5.4773,-5.476,-5.4761,-5.4887,-5.489,-5.4976,-5.5019,0,0,0,-5.4755,-5.4774,-5.4779,-5.4776,-5.4777,-5.4769,-5.4762,-5.4764,-5.4757,-5.476,-5.4761,-5.4887,-5.4889,-5.4972,-5.5011,-5.5062,0,0,0,-5.478,-5.4863,-5.4781,-5.4867,-5.4777,-5.4827,-5.4761,-5.4796,-5.4809,-5.476,-5.4888,-5.489,-5.497,-5.5007,-5.5057,-5.511,-5.5136,0,0,-5.4903,-5.4879,-5.4926,-5.4853,-5.4926,-5.4824,-5.4908,-5.4887,-5.4855,-5.488,-5.4882,-5.4978,-5.5011,-5.5061,-5.527,-5.5291,0,0,0,-5.4977,-5.5011,-5.5022,-5.5037,-5.5023,-5.5011,-5.4974,-5.4964,-5.4983,-5.4876,-5.5009,-5.5027,-5.5055,-5.5079,-5.5097,-5.5116,-5.4903,-5.4903,-5.4903,-5.5204,-5.5156,-5.5229,-5.518,-5.5194,-5.515,-5.5156,-5.5135,-5.5085,-5.5116,-5.5124,-5.5257,-5.5286,-5.5299,-5.5321,-5.5149,-5.5149,-5.5149,-5.515,-5.5379,-5.5419,-5.5345,-5.539,-5.5337,-5.5373,-5.5331,-5.5293,-5.5315,-5.5249,-5.5271,-5.5203,-5.5324,-5.5339,-5.5156,-5.5155,-5.5154,-5.5153,-5.5153,-5.5522,-5.5533,-5.5519,-5.553,-5.5542,-5.5487,-5.5511,-5.5462,-5.5415,-5.5437,-5.5437,-5.5435,-5.5425,-5.544,-5.5441,-5.5441,-5.5441,-5.5442,-5.5442,-5.5677,-5.5658,-5.5686,-5.5672,-5.567,-5.5662,-5.5614,-5.561,-5.5593,-5.5555,-5.5554,-5.5498,-5.5345,-5.5307,-5.5449,-5.5448,-5.5447,-5.5446,-5.5446,-5.5873,-5.5819,-5.5862,-5.5861,-5.5836,-5.5848,-5.5783,-5.5778,-5.5767,-5.5778,-5.5715,-5.5611,-5.5582,-5.5567,-5.5535,-5.5728,-5.5728,-5.5728,-5.5728,-5.5994,-5.5973,-5.6002,-5.6001,-5.5995,-5.5938,-5.5981,-5.594,-5.589,-5.5879,-5.5843,-5.5796,-5.5784,-5.5762,-5.5743,-5.5712,-5.5946,-5.5946,-5.5946,-5.611,-5.6085,-5.6135,-5.6085,-5.6059,-5.6037,-5.6074,-5.6072,-5.6004,-5.5954,-5.5868,-5.5859,-5.5782,-5.5761,-5.5712,-5.5684,-5.5627,0,0]}]]